Regional Weather Roundup
Issued by NWS

Home | Current Version | Previous Version | Graphics & Text | Print | Product List | Glossary Off
Versions: 1 2 3 4 5 6 7 8 9 10 11 12 13 14 15 16 17 18 19 20 21 22 23 24 25 26 27 28 29 30 31 32 33 34 35 36 37 38 39 40 41 42 43 44 45 46 47 48 49 50

000
ASUS43 KMKX 192211
RWRWI

WISCONSIN REGIONAL WEATHER ROUNDUP
NATIONAL WEATHER SERVICE MILWAUKEE/SULLIVAN WI
400 PM CST SUN FEB 19 2017

NOTE: "FAIR" INDICATES FEW OR NO CLOUDS BELOW 12,000 FEET WITH NO
SIGNIFICANT WEATHER AND/OR OBSTRUCTIONS TO VISIBILITY.

WIZ001-002-006>008-014>016-023>028-192300-
NORTHWEST WISCONSIN

CITY           SKY/WX    TMP DP  RH WIND       PRES   REMARKS
SUPERIOR ARPT  MOSUNNY   37  33  84 E9        29.98S WCI  31
ASHLAND        MOSUNNY   44  32  62 NE10      30.00S
HAYWARD        MOSUNNY   57  29  34 E8        29.95F
SIREN          MOSUNNY   56  32  39 SE9       29.92S
CUMBERLAND     CLOUDY    50  32  50 SE6       29.93F
RICE LAKE      CLOUDY    54  32  43 CALM      29.96S
CHETEK         CLOUDY    54  35  47 SE5       29.95S
LADYSMITH      MOSUNNY   55  32  41 E6        29.99S
EAU CLAIRE     MOSUNNY   58  31  35 SE6       29.95S
MENOMONIE      MOSUNNY   54  37  52 E6        29.94S
NEW RICHMOND   CLOUDY    53  38  57 SE7       29.92S
OSCEOLA        MOSUNNY   54  38  55 SE10      29.93F
$$

WIZ003>005-009-010-017-018-192300-
NORTH CENTRAL WISCONSIN

CITY           SKY/WX    TMP DP  RH WIND       PRES   REMARKS
MANITOWISH WTR CLOUDY    54  28  36 SE7       29.99S
ARBOR VITAE    PTSUNNY   57  28  33 SE7       30.00R
WOODRUFF       PTSUNNY   57  28  33 SE7       30.00R
RHINELANDER    PTSUNNY   56  26  31 S6        30.01R
EAGLE RIVER    CLOUDY    52  27  38 CALM      30.00S
LAND O LAKES   CLOUDY    54  24  30 SE5       30.02S
PHILLIPS       MOSUNNY   54  28  36 SE6       29.98S
TOMAHAWK       MOSUNNY   51  27  40 CALM      30.01R
MEDFORD        MOSUNNY   52  31  45 SE6       29.99F
MERRILL        NOT AVBL
$$

WIZ029-030-035-036-043>047-192300-
CENTRAL WISCONSIN

CITY           SKY/WX    TMP DP  RH WIND       PRES   REMARKS
WAUSAU         CLOUDY    55  29  36 S6        29.99S
MOSINEE        MOSUNNY   54  30  40 SE8       30.01F
MARSHFIELD     SUNNY     53  30  41 SE7       29.98F
STEVENS POINT  SUNNY     55  31  39 S7        30.02S
WAUPACA        SUNNY     60  36  40 CALM      30.03S
WAUTOMA        SUNNY     60  37  42 S6        30.02S
WISC RAPIDS    SUNNY     61  32  33 S7        30.01S
CAMP DOUGLAS   SUNNY     61  36  39 SE8       29.99S
$$

WIZ011>013-019>022-031-037>040-048>050-192300-
NORTHEAST WISCONSIN

CITY           SKY/WX    TMP DP  RH WIND       PRES   REMARKS
ANTIGO         CLOUDY    45  32  59 CALM      30.02S
SHAWANO        SUNNY     49  36  59 CALM      30.04S
OCONTO         MOSUNNY   52  31  44 SE5       30.06R
STURGEON BAY   MOSUNNY   46  31  55 SE7       30.08R
GREEN BAY      SUNNY     57  41  55 S3        30.05R
MANITOWOC      SUNNY     46  31  55 MISG      30.07R
APPLETON       MOSUNNY   57  28  33 VRB6      30.02S
CLINTONVILLE   SUNNY     55  34  44 SE6       30.03S
OSHKOSH        SUNNY     52  36  54 CALM      30.04S
$$

WIZ032>034-041-042-053>061-192300-
SOUTHWEST WISCONSIN

CITY           SKY/WX    TMP DP  RH WIND       PRES   REMARKS
LA CROSSE      SUNNY     63  34  33 SE13      29.95F
SPARTA         SUNNY     63  34  34 SE9       29.98F
VIROQUA        SUNNY     58  39  49 CALM      29.98S
BOSCOBEL       SUNNY     64  36  35 CALM      29.99S
PRAIRIE DU CHI CLOUDY    62  39  42 E7        29.96F
PLATTEVILLE    CLOUDY    61  39  44 SE7       30.00F
$$

WIZ056-057-062-063-064-067-068-192300-
SOUTH CENTRAL WISCONSIN

CITY           SKY/WX    TMP DP  RH WIND       PRES   REMARKS
REEDSBURG      SUNNY     62  36  38 S6        30.00S
BARABOO/DELLS  SUNNY     60  37  42 S8        30.02R
LONE ROCK      SUNNY     63  39  41 SE8       30.00F
MINERAL POINT  SUNNY     63  36  36 S8        30.00F
MADISON        PTSUNNY   61  36  39 S10       30.02S
MIDDLETON      SUNNY     62  37  38 S9        30.03R
WATERTOWN      SUNNY     60  32  34 S5        30.03S
MONROE         SUNNY     63  37  39 SE8       30.02R
JANESVILLE     SUNNY     64  34  32 S7        30.02S
$$

WIZ051-052-058>065-066-070>072-192300-
SOUTHEAST WISCONSIN

CITY           SKY/WX    TMP DP  RH WIND       PRES   REMARKS
MILWAUKEE      PTSUNNY   51  31  46 SE7       30.06S
WAUKESHA       SUNNY     63  27  25 S7        30.04S
MILWAUKEE/TIMM SUNNY     55  27  33 SE7       30.06R
RACINE         SUNNY     50  31  48 SE8       30.08R
KENOSHA        SUNNY     51  32  48 E8        30.06S
FOND DU LAC    SUNNY     60  36  40 S5        30.03S
SHEBOYGAN      SUNNY     52  32  46 SE6       30.05S
WEST BEND      SUNNY     55  32  41 E7        30.05R
JUNEAU         SUNNY     60  37  43 SW5       30.04S
$$

LSZ147-162-192300-
LAKE SUPERIOR

STATION/POSITION TIME  TEMP    WIND        PRES    WAVE
                       AIR SEA DIR/SP/G            HT/PER
                 (UTC) (F)     (DEG/KT/KT) (MB)    (FT/S)
DEVILS ISLAND    2200   36      50/ 15/ 16 1017.1F
PORT WING        2140   36      30/ 12/ 14 1015.2F
SAXON HARBOR     2140   36     320/  3/  3 1016.3R
$$

LMZ867-665-643>646-192300-
LAKE MICHIGAN

STATION/POSITION TIME  TEMP    WIND        PRES    WAVE
                       AIR SEA DIR/SP/G            HT/PER
                 (UTC) (F)     (DEG/KT/KT) (MB)    (FT/S)
CHAMBERS ISLAND  2140   44      70/  5/  6 1017.9R
NORTHPORT PIER   2140   38     140/  3/  5 1018.6R
SISTER BAY       2135   54     120/  7/ 10   N/A
KEWAUNEE LAKESHO 2148   43      CALM  /  3 1017.9R
SHEBOYGAN LAKESH 2200   41     110/  4/  5 1018.0S
PORT WASHINGTON  2140   47     120/  2/  3 1019.0R
MILWAUKEE LAKESH 2150   44     190/  2/  2   N/A
KENOSHA   LAKESH 2200   47      CALM  /  2 1017.9
$$

TC  - TEMPERATURE IN CELSIUS
VSB - VISIBILITY IN STATUTE MILES
WCI - WIND CHILL INDEX
HX  - HEAT INDEX




USA.gov is the U.S. government's official web portal to all federal, state and local government web resources and services.